Regional Weather Roundup
Issued by NWS

Home | Current Version | Previous Version | Text Only | Print | Product List | Glossary On
Versions: 1 2 3 4 5 6 7 8 9 10 11 12 13 14 15 16 17 18 19 20 21 22 23 24 25 26 27
000
ASUS46 KPQR 032210
RWROR

OREGON REGIONAL WEATHER ROUNDUP
NATIONAL WEATHER SERVICE PORTLAND OR
300 PM PDT TUE MAY 03 2016

NOTE: "FAIR" INDICATES FEW OR NO CLOUDS BELOW 12,000 FEET WITH
NO SIGNIFICANT WEATHER AND/OR OBSTRUCTIONS TO VISIBILITY.

ORZ001>013-032300-
NORTHWEST OREGON


CITY           SKY/WX    TMP DP  RH WIND       PRES   REMARKS
ASTORIA        CLOUDY    62  54  74 W6        30.09S
NEWPORT        CLOUDY    55  52  88 W5        30.13S
PORTLAND       CLOUDY    73  47  39 W9        30.02F
VANCOUVER WA   PTSUNNY   72  49  44 W5        30.02F
SCAPPOOSE      CLOUDY    71  51  49 E6        30.02F
HILLSBORO      PTSUNNY   73  48  41 CALM      30.02F
AURORA         CLOUDY    70  52  52 W6        30.03F
MCMINNVILLE    CLOUDY    70  55  59 VRB5      30.03F
SALEM          CLOUDY    70  50  49 CALM      30.02F
CORVALLIS        N/A     68  54  60 NW12      30.05F
EUGENE         CLOUDY    68  52  56 N3        30.04S
$$

ORZ021-028-032300-
SOUTHWEST OREGON


CITY           SKY/WX    TMP DP  RH WIND       PRES   REMARKS
NORTH BEND     CLOUDY    61  52  72 NW9       30.11S
BROOKINGS      CLOUDY    56  50  80 NW13      30.08R
ROSEBURG       CLOUDY    70  52  52 N7        30.02F
SEXTON SUMMIT  CLOUDY    59  43  55 VRB3      30.07R
MEDFORD        CLOUDY    68  47  46 CALM      30.00F
$$

ORZ014>016-041-032300-
COLUMBIA GORGE


CITY           SKY/WX    TMP DP  RH WIND       PRES   REMARKS
TROUTDALE      PTSUNNY   74  50  42 MISG      30.01F
THE DALLES     PTSUNNY   78  46  32 NW15      29.92F
$$

ORZ029>031-041-044-049-050-061>064-502-503-505>511-032300-
EASTERN OREGON


CITY           SKY/WX    TMP DP  RH WIND       PRES   REMARKS
REDMOND        CLOUDY    74  37  26 MISG      30.02R
BEND           CLOUDY    72  36  26 SW6       30.02S
PRINEVILLE     CLOUDY    68  43  40 MISG      30.02S
KLAMATH FALLS  CLOUDY    66  39  37 CALM      30.06F
LAKEVIEW       CLOUDY    66  37  34 SW18      30.11R
HERMISTON      MOSUNNY   90  39  16 N7        29.89F
PENDLETON      MOSUNNY   86  32  14 S9G20     29.93F
JOHN DAY       MOSUNNY   79  30  16 SE12      30.05F
MEACHAM        MOSUNNY   74  34  23 CALM      30.06F
LA GRANDE      SUNNY     81  37  21 S14G22    30.03F
BAKER CITY     SUNNY     77  29  17 S14G21    30.08F
BURNS          MOSUNNY   74  26  16 E8        30.08F
ROME             N/A     78  23  13 VRB6G18   30.07F
ONTARIO        SUNNY     80  36  20 VRB3G16   30.06F
$$




USA.gov is the U.S. government's official web portal to all federal, state and local government web resources and services.